Location: Bjelajci
(45.0103°N, 16.1758°E)
Time: 09:36:28
(UTC+00:00)

CZ-4C R/B - Pass Details

Date: 14 July 2020
Orbit: 409 x 491 km, 97.7° (Epoch: 08 August)

Event Time Altitude Azimuth Distance (km) Brightness Sun altitude
Rises 02:21:47 0° 167° (SSE) 2,382 6.3 -9.2°
Reaches altitude 10° 02:23:48 10° 167° (SSE) 1,509 5.3 -9.0°
Maximum altitude 02:27:01 86° 259° (WSW) 425 2.7 -8.6°
Drops below altitude 10° 02:30:13 10° 346° (NNW) 1,496 5.9 -8.2°
Sets 02:32:12 0° 347° (NNW) 2,358 7.0 -7.9°
